Date String (YYYY-MM-DD hh:mm:ss) UTC,Instrument flags,Ambient pressure (hPa),Sample flow (lpm),Bypass flow (lpm),Sample temperature (°C),Ambient temperature (°C),ASC tube jacket temperature (°C),LED temperature (°C),Box temperature (°C),Sample RH (%),Span deviation,Mass concentration (μg/m³),Mass concentration (μg/m³),Mass concentration (μg/m³)
DateTimeUTC,F1_M11,P_M11,Q1_M11,Q2_M11,T1_M11,T2_M11,T3_M11,T4_M11,T5_M11,U1_M11,ZSPAN_M11,X0_M11,X2_M11,X1_M11
2021-11-03 13:00:00,,0832.3,4.99,0.00,23.4,22.5,00.0,32.5,25.2,22.2,0000.0,0003.29,0002.61,0002.39
2021-11-03 13:01:00,,0832.4,5.00,0.00,23.4,22.5,00.0,32.5,25.2,22.3,0000.0,0003.14,0002.53,0002.37
2021-11-03 13:02:00,,0832.4,5.01,0.00,23.4,22.5,00.0,32.5,25.2,22.3,0000.0,0003.06,0002.51,0002.35
2021-11-03 13:03:00,,0832.3,5.00,0.00,23.4,22.5,00.0,32.5,25.1,22.5,0000.0,0002.95,0002.50,0002.36
2021-11-03 13:04:00,,0832.3,5.00,0.00,23.4,22.5,00.0,32.5,25.2,22.6,0000.0,0002.95,0002.52,0002.38
2021-11-03 13:05:00,,0832.3,5.00,0.00,23.4,22.5,00.0,32.5,25.1,22.7,0000.0,0002.94,0002.54,0002.39
2021-11-03 13:06:00,,0832.3,4.99,0.00,23.4,22.5,00.0,32.5,25.1,22.7,0000.0,0002.84,0002.51,0002.37
2021-11-03 13:07:00,,0832.4,5.00,0.00,23.4,22.5,00.0,32.4,25.1,22.7,0000.0,0002.88,0002.52,0002.36
2021-11-03 13:08:00,,0832.4,4.99,0.00,23.4,22.5,00.0,32.4,25.1,22.6,0000.0,0002.87,0002.50,0002.34
2021-11-03 13:09:00,,0832.4,5.01,0.00,23.4,22.5,00.0,32.4,25.1,22.6,0000.0,0002.80,0002.50,0002.36
2021-11-03 13:10:00,,0832.5,4.98,0.00,23.4,22.5,00.0,32.4,25.1,22.6,0000.0,0002.84,0002.53,0002.38
2021-11-03 13:11:00,,0832.5,5.01,0.00,23.3,22.5,00.0,32.4,25.1,22.6,0000.0,0002.91,0002.58,0002.42
2021-11-03 13:12:00,,0832.4,4.99,0.00,23.3,22.5,00.0,32.4,25.1,22.6,0000.0,0002.94,0002.60,0002.44
2021-11-03 13:13:00,,0832.4,5.00,0.00,23.3,22.5,00.0,32.4,25.1,22.7,0000.0,0002.93,0002.61,0002.46
2021-11-03 13:14:00,,0832.5,4.99,0.00,23.3,22.5,00.0,32.4,25.1,22.7,0000.0,0002.95,0002.60,0002.47
2021-11-03 13:15:00,,0832.5,5.00,0.00,23.3,22.5,00.0,32.4,25.1,22.6,0000.0,0002.90,0002.58,0002.45
2021-11-03 13:16:00,,0832.5,5.00,0.00,23.3,22.5,00.0,32.4,25.1,22.5,0000.0,0002.86,0002.56,0002.44
2021-11-03 13:17:00,,0832.5,4.99,0.00,23.3,22.5,00.0,32.4,25.1,22.4,0000.0,0002.83,0002.54,0002.42
2021-11-03 13:18:00,,0832.5,5.00,0.00,23.3,22.5,00.0,32.4,25.1,22.3,0000.0,0002.78,0002.51,0002.40
2021-11-03 13:19:00,,0832.5,5.00,0.00,23.3,22.5,00.0,32.4,25.1,22.4,0000.0,0002.77,0002.50,0002.39
2021-11-03 13:20:00,,0832.5,5.00,0.00,23.3,22.5,00.0,32.4,25.1,22.4,0000.0,0002.94,0002.54,0002.39
2021-11-03 13:21:00,,0832.5,5.01,0.00,23.3,22.4,00.0,32.4,25.0,22.4,0000.0,0002.99,0002.55,0002.38
2021-11-03 13:22:00,,0832.5,5.00,0.00,23.3,22.4,00.0,32.4,25.1,22.3,0000.0,0002.96,0002.52,0002.35
2021-11-03 13:23:00,,0832.5,4.99,0.00,23.3,22.4,00.0,32.4,25.1,22.2,0000.0,0002.94,0002.50,0002.32
2021-11-03 13:24:00,,0832.5,5.01,0.00,23.3,22.4,00.0,32.4,25.1,22.1,0000.0,0002.93,0002.47,0002.27
2021-11-03 13:25:00,,0832.6,4.99,0.00,23.3,22.4,00.0,32.4,25.0,22.2,0000.0,0002.89,0002.43,0002.23
2021-11-03 13:26:00,,0832.6,5.00,0.00,23.3,22.4,00.0,32.4,25.0,22.3,0000.0,0002.90,0002.42,0002.22
2021-11-03 13:27:00,,0832.6,5.01,0.00,23.3,22.4,00.0,32.4,25.1,22.3,0000.0,0002.86,0002.41,0002.22
2021-11-03 13:28:00,,0832.6,5.00,0.00,23.3,22.4,00.0,32.4,25.0,22.4,0000.0,0002.86,0002.42,0002.22
2021-11-03 13:29:00,,0832.6,4.99,0.00,23.3,22.4,00.0,32.4,25.0,22.3,0000.0,0002.86,0002.41,0002.22
2021-11-03 13:30:00,,0832.6,5.01,0.00,23.3,22.4,00.0,32.4,25.1,22.4,0000.0,0002.84,0002.41,0002.22
2021-11-03 13:31:00,,0832.6,4.99,0.00,23.3,22.4,00.0,32.4,25.0,22.3,0000.0,0003.33,0002.36,0002.21
2021-11-03 13:32:00,,0832.6,5.00,0.00,23.3,22.4,00.0,32.4,25.0,22.3,0000.0,0003.78,0002.31,0002.19
2021-11-03 13:33:00,,0832.7,4.99,0.00,23.3,22.4,00.0,32.3,25.0,22.3,0000.0,0003.74,0002.28,0002.17
2021-11-03 13:34:00,,0832.7,5.00,0.00,23.3,22.4,00.0,32.3,25.0,22.2,0000.0,0003.73,0002.28,0002.18
2021-11-03 13:35:00,,0832.7,5.00,0.00,23.3,22.4,00.0,32.3,25.0,22.1,0000.0,0003.69,0002.26,0002.18
2021-11-03 13:36:00,,0832.7,4.99,0.00,23.3,22.4,00.0,32.3,25.0,22.0,0000.0,0003.66,0002.25,0002.17
2021-11-03 13:37:00,,0832.7,5.01,0.00,23.3,22.4,00.0,32.3,25.0,22.0,0000.0,0003.60,0002.21,0002.14
2021-11-03 13:38:00,,0832.7,4.99,0.00,23.3,22.4,00.0,32.3,25.0,22.0,0000.0,0003.58,0002.17,0002.10
2021-11-03 13:39:00,,0832.7,5.01,0.00,23.3,22.4,00.0,32.3,25.0,22.2,0000.0,0003.57,0002.16,0002.09
2021-11-03 13:40:00,,0832.7,5.01,0.00,23.3,22.4,00.0,32.3,25.0,22.3,0000.0,0003.57,0002.17,0002.09
2021-11-03 13:41:00,,0832.8,4.99,0.00,23.2,22.3,00.0,32.3,25.0,22.4,0000.0,0003.60,0002.19,0002.11
2021-11-03 13:42:00,,0832.7,5.00,0.00,23.3,22.3,00.0,32.3,25.0,22.5,0000.0,0002.92,0002.22,0002.15
2021-11-03 13:43:00,,0832.7,4.99,0.00,23.2,22.3,00.0,32.3,25.0,22.6,0000.0,0002.50,0002.27,0002.18
2021-11-03 13:44:00,,0832.7,4.99,0.00,23.2,22.3,00.0,32.3,25.0,22.6,0000.0,0002.56,0002.32,0002.22
2021-11-03 13:45:00,,0832.7,5.00,0.00,23.2,22.3,00.0,32.3,25.0,22.5,0000.0,0003.28,0002.36,0002.25
2021-11-03 13:46:00,,0832.7,5.00,0.00,23.2,22.3,00.0,32.3,25.0,22.5,0000.0,0003.68,0002.41,0002.29
2021-11-03 13:47:00,,0832.8,5.01,0.00,23.2,22.3,00.0,32.3,25.0,22.3,0000.0,0003.72,0002.45,0002.33
2021-11-03 13:48:00,,0832.8,5.00,0.00,23.2,22.3,00.0,32.3,25.0,22.2,0000.0,0003.74,0002.47,0002.35
2021-11-03 13:49:00,,0832.8,5.00,0.00,23.2,22.3,00.0,32.3,25.0,22.2,0000.0,0003.74,0002.49,0002.38
2021-11-03 13:50:00,,0832.8,5.00,0.00,23.2,22.3,00.0,32.3,24.9,22.1,0000.0,0003.78,0002.52,0002.40
2021-11-03 13:51:00,,0832.8,5.00,0.00,23.2,22.3,00.0,32.3,25.0,22.1,0000.0,0003.87,0002.56,0002.41
2021-11-03 13:52:00,,0832.8,5.02,0.00,23.2,22.3,00.0,32.3,25.0,22.2,0000.0,0003.84,0002.55,0002.41
2021-11-03 13:53:00,,0832.7,5.01,0.00,23.2,22.3,00.0,32.3,25.0,22.1,0000.0,0003.85,0002.57,0002.42
2021-11-03 13:54:00,,0832.7,5.00,0.00,23.2,22.4,00.0,32.3,25.0,22.1,0000.0,0003.83,0002.56,0002.41
2021-11-03 13:55:00,,0832.8,4.99,0.00,23.2,22.4,00.0,32.3,25.0,22.1,0000.0,0003.84,0002.58,0002.42
2021-11-03 13:56:00,,0832.8,5.00,0.00,23.2,22.4,00.0,32.3,25.0,22.1,0000.0,0003.31,0002.56,0002.41
2021-11-03 13:57:00,,0832.8,4.99,0.00,23.2,22.3,00.0,32.3,24.9,22.2,0000.0,0002.80,0002.57,0002.43
2021-11-03 13:58:00,,0832.8,5.01,0.00,23.2,22.3,00.0,32.3,25.0,22.2,0000.0,0002.94,0002.62,0002.47
2021-11-03 13:59:00,,0832.7,4.99,0.00,23.2,22.4,00.0,32.3,25.0,22.2,0000.0,0003.09,0002.73,0002.56
